Chatham, MA

9:01 AM EST on December 10, 2019 (GMT -0500)
Chatham Municipal

Weather History for KCQX - November, 2019

Change the Weather History Date:

Tuesday, November 12, 2019

  Actual Average Record
Temperature  
Mean Temperature 44 °F -  
Max Temperature 57 °F 48 °F 64 °F (2012)
Min Temperature 28 °F 36 °F 28 °F (1976)
Degree Days  
Heating Degree Days 22    
Moisture  
Dew Point 39 °F    
Average Humidity 89    
Maximum Humidity 97    
Minimum Humidity 59    
Precipitation  
Precipitation 0.44 in - - ()
Sea Level Pressure  
Sea Level Pressure 29.81 in    
Wind  
Wind Speed 9 mph ()    
Max Wind Speed 15 mph    
Max Gust Speed 31 mph    
Visibility 5.6 miles    
Events Rain , Snow    
Averages and records for this station are not official NWS values.
T = Trace of Precipitation, MM = Missing Value Source: Averaged Metar Reports

Daily Weather History Graph

Daily Weather History Graph

Search for Another Location

Airport or City:

Astronomy

Nov. 12, 2019 Rise Set
Actual Time 6:25 AM EST 4:22 PM EST
Civil Twilight 5:55 AM EST 4:52 PM EST
Nautical Twilight 5:22 AM EST 5:25 PM EST
Astronomical Twilight 4:49 AM EST 5:58 PM EST
Moon 4:48 PM EST (11/12) 6:12 AM EST (11/12)
Length of Visible Light 10h 56m
Length of Day
9h 57m
Full, 100% of the Moon is Illuminated
Nov 12
Full
Nov 19
Last Quarter
Nov 26
New
Dec 4
First Quarter
Dec 12
Full

Hourly Weather History & Observations

Time (EST) Temp. Windchill Dew Point Humidity Pressure Visibility Wind Dir Wind Speed Gust Speed Precip Events Conditions
12:52 AM 55.0 °F - 54.0 °F 96% 29.88 in 10.0 mi SSW 9.2 mph - N/A   Clear
1:52 AM 57.0 °F - 55.0 °F 93% 29.85 in 10.0 mi South 10.4 mph 21.9 mph N/A   Clear
2:52 AM 57.0 °F - 54.0 °F 89% 29.81 in 10.0 mi SSW 9.2 mph 24.2 mph N/A   Clear
3:52 AM 55.9 °F - 54.0 °F 93% 29.78 in 9.0 mi SSW 9.2 mph 17.3 mph N/A   Clear
4:52 AM 55.9 °F - 54.0 °F 93% 29.78 in 8.0 mi SSW 9.2 mph 17.3 mph N/A   Clear
5:52 AM 57.0 °F - 54.0 °F 89% 29.77 in 9.0 mi SSW 9.2 mph 19.6 mph N/A   Clear
6:52 AM 57.0 °F - 54.0 °F 89% 29.74 in 8.0 mi SSW 9.2 mph 18.4 mph N/A   Clear
7:52 AM 57.0 °F - 54.0 °F 89% 29.73 in 9.0 mi SSW 9.2 mph 19.6 mph N/A   Clear
8:52 AM 57.0 °F - 52.0 °F 83% 29.72 in 10.0 mi SW 9.2 mph - N/A   Clear
9:52 AM 57.9 °F - 53.1 °F 84% 29.72 in 9.0 mi SW 11.5 mph 21.9 mph N/A   Clear
10:52 AM 57.9 °F - 52.0 °F 81% 29.70 in 10.0 mi SW 11.5 mph 24.2 mph N/A   Clear
11:52 AM 57.0 °F - 51.1 °F 81% 29.68 in - SW 8.1 mph 16.1 mph N/A   Clear
12:52 PM 55.9 °F - 50.0 °F 80% 29.70 in - West 8.1 mph - 0.00 in Rain Light Rain
1:24 PM 46.9 °F - 44.1 °F 90% 29.73 in - NW 12.7 mph 19.6 mph 0.03 in Rain Rain
1:33 PM 46.0 °F 40.6 °F 44.1 °F 93% 29.73 in 2.5 mi NW 11.5 mph 23.0 mph 0.06 in Rain Rain
1:39 PM 46.0 °F 41.9 °F 44.1 °F 93% 29.72 in 2.5 mi NNW 8.1 mph 21.9 mph 0.07 in Rain Rain
1:41 PM 46.0 °F 42.5 °F 44.1 °F 93% 29.72 in 3.0 mi Variable 6.9 mph 21.9 mph 0.07 in Rain Rain
1:52 PM 45.0 °F 40.6 °F 43.0 °F 93% 29.73 in 4.0 mi NW 8.1 mph 20.7 mph 0.09 in Rain Light Rain
2:20 PM 44.1 °F 39.0 °F 42.1 °F 93% 29.74 in 3.0 mi NW 9.2 mph 18.4 mph 0.06 in Rain Rain
2:28 PM 44.1 °F 37.4 °F 42.1 °F 93% 29.74 in 4.0 mi NW 13.8 mph 20.7 mph 0.07 in Rain Rain
2:50 PM 44.6 °F 40.7 °F 42.8 °F 93% 29.74 in 5.0 mi Variable 6.9 mph 16.1 mph 0.10 in Rain Light Rain
2:52 PM 44.1 °F 38.6 °F 42.1 °F 93% 29.75 in 6.0 mi NW 10.4 mph - 0.10 in Rain Light Rain
2:59 PM 43.0 °F 38.2 °F 41.0 °F 93% 29.75 in 6.0 mi NW 8.1 mph - 0.01 in Rain Light Rain
3:11 PM 43.0 °F 39.5 °F 41.0 °F 93% 29.76 in 8.0 mi Variable 5.8 mph - 0.01 in Rain Light Rain
3:33 PM 43.0 °F 40.3 °F 42.1 °F 97% 29.76 in 6.0 mi Variable 4.6 mph - 0.03 in Rain Light Rain
3:52 PM 42.1 °F 37.1 °F 39.9 °F 92% 29.78 in 5.0 mi NW 8.1 mph 17.3 mph 0.06 in Rain Light Rain
4:16 PM 39.0 °F 31.0 °F 37.0 °F 93% 29.81 in 4.0 mi NW 13.8 mph 31.1 mph 0.03 in Rain Light Rain
4:49 PM 35.6 °F 28.6 °F 33.8 °F 93% 29.83 in 5.0 mi NW 9.2 mph 18.4 mph 0.07 in Rain Light Rain
4:52 PM 35.1 °F 26.9 °F 34.0 °F 96% 29.84 in 6.0 mi NW 11.5 mph 21.9 mph 0.08 in Snow Light Snow
5:14 PM 34.0 °F 26.6 °F 33.1 °F 96% 29.84 in 1.8 mi NW 9.2 mph 21.9 mph 0.01 in Snow Light Snow
5:27 PM 34.0 °F 27.2 °F 32.0 °F 92% 29.84 in 2.5 mi NW 8.1 mph 17.3 mph 0.02 in Snow Light Snow
5:42 PM 33.1 °F 24.4 °F 32.0 °F 96% 29.85 in 1.8 mi NNW 11.5 mph 24.2 mph 0.03 in Snow Light Snow
5:52 PM 33.1 °F 24.9 °F 32.0 °F 96% 29.86 in 1.0 mi NW 10.4 mph 23.0 mph 0.04 in Snow Light Snow
6:04 PM 33.1 °F 23.9 °F 32.0 °F 96% 29.87 in 0.8 mi NW 12.7 mph 23.0 mph 0.01 in Snow Light Snow
6:10 PM 33.1 °F 24.4 °F 32.0 °F 96% 29.87 in 1.0 mi NW 11.5 mph 23.0 mph 0.02 in Snow Light Snow
6:23 PM 33.1 °F 23.0 °F 30.9 °F 92% 29.88 in 0.8 mi NW 15.0 mph 24.2 mph 0.04 in Snow Light Snow
6:48 PM 32.0 °F 23.0 °F 30.2 °F 93% 29.88 in 1.0 mi NW 11.5 mph 21.9 mph 0.06 in Snow Light Snow
6:52 PM 32.0 °F 22.1 °F 30.0 °F 92% 29.89 in 1.2 mi NW 13.8 mph 25.3 mph 0.06 in Snow Light Snow
7:02 PM 30.9 °F 22.8 °F 28.9 °F 92% 29.89 in 1.2 mi NW 9.2 mph 23.0 mph 0.00 in Snow Light Snow
7:43 PM 30.9 °F 22.2 °F 27.0 °F 85% 29.89 in 1.8 mi NW 10.4 mph 24.2 mph 0.01 in Snow Light Snow
7:52 PM 30.9 °F 21.7 °F 27.0 °F 85% 29.91 in 3.0 mi NNW 11.5 mph 21.9 mph 0.01 in Snow Light Snow
8:04 PM 30.9 °F 20.7 °F 24.1 °F 76% 29.90 in 9.0 mi NW 13.8 mph 24.2 mph 0.00 in   Overcast
8:52 PM 30.9 °F 22.2 °F 21.0 °F 67% 29.92 in 10.0 mi NW 10.4 mph 21.9 mph 0.00 in   Overcast
9:52 PM 30.9 °F 22.2 °F 21.0 °F 67% 29.95 in 10.0 mi WNW 10.4 mph 19.6 mph N/A   Overcast
10:52 PM 30.0 °F 20.5 °F 17.1 °F 59% 29.96 in 10.0 mi WNW 11.5 mph 24.2 mph N/A   Clear
11:52 PM 28.9 °F 20.4 °F 17.1 °F 61% 29.98 in 10.0 mi NW 9.2 mph 23.0 mph N/A   Overcast